GPS BIIF-9

Last updated on Sun Mar 15 2026 00:02:40 GMT+0000 (Coordinated Universal Time)

1 40534U 15013A 26073.32863954 .00000004 00000+0 00000+0 0 9996 2 40534 53.1841 208.0995 0108772 39.8558 320.9019 2.00556995 79928
UTC large
Height (km)
Speed (km/s)
/
Latitude / Longitude
Inclination (degrees)
Orbital Period (minutes)
Azimuth
Elevation
Range (km)
Doppler Factor

Next 0 passes for location: London (51.5072 / 0.1276)

Sorry there are no passes over London.